Location: Unspecified
(44.0704°N, 88.6889°W)
Time: 03:27:44
(UTC+02:00)

deb Explorer IX - All Passes

Search period start: 17 June 2019 00:00
Search period end: 27 June 2019 00:00
Orbit: 537 x 1115 km, 38.8° (Epoch: 16 June)

Date Brightness Start Highest point End Pass type
(mag) Time Alt. Az. Time Alt. Az. Time Alt. Az.
17 Jun - 00:19:56 10° SW 00:26:49 45° SSE 00:33:11 10° E daylight
17 Jun - 02:06:55 10° WSW 02:13:52 56° S 02:20:01 10° ESE daylight
17 Jun - 03:54:33 10° W 04:00:42 39° SSW 04:06:04 10° SE daylight
17 Jun - 05:43:32 10° WSW 05:46:46 15° SW 05:49:46 10° S visible
17 Jun - 22:12:45 10° SSW 22:18:12 23° SSE 22:23:34 10° E daylight
17 Jun - 23:57:56 10° SW 00:04:53 45° SSE 00:11:24 10° E daylight
18 Jun - 01:44:55 10° WSW 01:51:58 56° S 01:58:16 10° ESE daylight
18 Jun - 03:32:33 10° W 03:38:51 39° SSW 03:44:22 10° SE daylight
18 Jun - 05:21:31 10° WSW 05:24:56 15° SW 05:28:06 10° S visible
18 Jun - 21:50:46 10° SSW 21:56:15 23° SSE 22:01:43 10° E daylight
18 Jun - 23:35:57 10° SW 23:42:56 46° SSE 23:49:36 10° E daylight
19 Jun - 01:22:55 10° WSW 01:30:03 57° S 01:36:30 10° ESE daylight
19 Jun - 03:10:32 10° W 03:16:58 40° SSW 03:22:39 10° SE daylight
19 Jun - 04:59:30 10° WSW 05:03:05 15° SW 05:06:24 10° S visible
19 Jun - 21:28:48 10° SSW 21:34:17 23° SSE 21:39:51 10° E daylight
19 Jun - 23:13:59 10° SW 23:20:59 47° SSE 23:27:45 10° E daylight
20 Jun - 01:00:56 10° WSW 01:08:07 57° S 01:14:43 10° ESE daylight
20 Jun - 02:48:31 10° W 02:55:04 40° SSW 03:00:54 10° SE daylight
20 Jun - 04:37:29 10° WSW 04:41:13 16° SW 04:44:41 10° S visible
20 Jun - 21:06:51 10° SSW 21:12:20 24° SSE 21:17:56 10° E daylight
20 Jun - 22:52:02 10° SW 22:59:01 47° SSE 23:05:53 10° E daylight
21 Jun - 00:38:57 10° WSW 00:46:10 57° S 00:52:54 10° ESE daylight
21 Jun - 02:26:31 10° W 02:33:09 40° SSW 02:39:08 10° SE daylight
21 Jun - 04:15:28 10° WSW 04:19:19 16° SW 04:22:56 10° S visible
21 Jun - 20:44:55 10° SSW 20:50:23 24° SSE 20:56:01 10° E daylight
21 Jun - 22:30:06 10° SW 22:37:03 48° SSE 22:43:59 10° E daylight
22 Jun - 00:16:59 10° W 00:24:13 58° S 00:31:04 10° ESE daylight
22 Jun - 02:04:30 10° W 02:11:13 40° SSW 02:17:20 10° SE daylight
22 Jun - 03:53:26 10° WSW 03:57:26 16° SW 04:01:11 10° S daylight
22 Jun - 20:23:01 10° SSW 20:28:26 24° SSE 20:34:04 10° E daylight
22 Jun - 22:08:11 10° SW 22:15:04 48° SSE 22:22:04 10° E daylight
22 Jun - 23:55:01 10° W 00:02:15 58° S 00:09:12 10° ESE daylight
23 Jun - 01:42:31 10° W 01:49:16 40° SSW 01:55:31 10° SE daylight
23 Jun - 03:31:25 10° WSW 03:35:31 16° SW 03:39:23 10° S daylight
23 Jun - 20:01:07 10° SSW 20:06:28 24° SSE 20:12:05 10° E daylight
23 Jun - 21:46:17 10° WSW 21:53:06 48° SSE 22:00:08 10° E daylight
23 Jun - 23:33:04 10° W 23:40:16 58° S 23:47:19 10° ESE daylight
24 Jun - 01:20:32 10° W 01:27:18 40° SSW 01:33:40 10° SE daylight
24 Jun - 03:09:25 10° WSW 03:13:36 17° SW 03:17:33 10° S daylight
24 Jun - 19:39:16 10° SSW 19:44:30 24° SSE 19:50:06 10° E daylight
24 Jun - 21:24:23 10° WSW 21:31:07 49° SSE 21:38:11 10° E daylight
24 Jun - 23:11:08 10° W 23:18:17 58° S 23:25:25 10° ESE daylight
25 Jun - 00:58:33 10° W 01:05:20 40° SSW 01:11:47 10° SE daylight
25 Jun - 02:47:25 10° WSW 02:51:39 17° SW 02:55:41 10° S daylight
25 Jun - 19:17:25 10° SSW 19:22:34 24° SSE 19:28:06 10° E daylight
25 Jun - 21:02:31 10° WSW 21:09:09 49° SSE 21:16:12 10° E daylight
25 Jun - 22:49:13 10° W 22:56:18 58° S 23:03:29 10° ESE daylight
26 Jun - 00:36:35 10° W 00:43:21 40° SSW 00:49:54 10° SE daylight
26 Jun - 02:25:26 10° WSW 02:29:42 17° SW 02:33:48 10° S daylight
26 Jun - 18:55:36 10° SSW 19:00:37 24° SSE 19:06:05 10° E daylight
26 Jun - 20:40:40 10° WSW 20:47:10 49° SSE 20:54:12 10° E daylight
26 Jun - 22:27:19 10° W 22:34:19 57° S 22:41:31 10° ESE daylight
